AirNav   TITAN Aviation Fuels
 
 1285 users online  

42VA Virginia Beach Airport
Virginia Beach, Virginia, USA

GOING TO VIRGINIA BEACH?


FAA INFORMATION EFFECTIVE 14 JULY 2022

Location

FAA Identifier: 42VA
Lat/Long: 36-40-44.0550N 076-01-57.9950W
36-40.734250N 076-01.966583W
36.6789042,-76.0327764
(estimated)
Elevation: 15 ft. / 5 m (estimated)
Variation: 10W (1990)
From city: 4 miles SE of VIRGINIA BEACH, VA
Time zone: UTC -4 (UTC -5 during Standard Time)
Zip code: 23457

Airport Operations

Airport use: Private use. Permission required prior to landing
Activation date: 04/1993
Control tower: no
ARTCC: WASHINGTON CENTER
FSS: LEESBURG FLIGHT SERVICE STATION
Attendance: UNATNDD
Wind indicator: yes
Segmented circle: no

Airport Communications

WX ASOS at NTU (9 nm N): PHONE DSN 433-3619 or 757-433-3619
WX AWOS-3 at CPK (14 nm W): 123.675 (757-204-4290)
WX ASOS at ORF (15 nm NW): PHONE 757-460-9348
WX AWOS-3 at ONX (17 nm S): 119.775 (252-453-8939)

Nearby radio navigation aids

VOR radial/distance  VOR name  Freq  Var
ORFr155/15.1NORFOLK VORTAC116.9007W
ECGr022/26.2ELIZABETH CITY VOR/DME112.5007W

 
NDB name  Hdg/Dist  Freq  Var  ID
INGLE142/14.332909WOR --- .-.
WOODVILLE037/28.025410WLLW .-.. .-.. .--

Airport Services

Runway Information

Runway 11/29

Dimensions: 4845 x 190 ft. / 1477 x 58 m
Surface: turf, in good condition
RUNWAY 11  RUNWAY 29
Latitude: 36-40.824167N36-40.644333N
Longitude: 076-02.449500W076-01.483667W
Elevation: 10.0 ft.9.0 ft.
Traffic pattern: leftleft

Airport Ownership and Management from official FAA records

Ownership: Privately-owned
Owner: VIRGINIA BEACH ARPT, LLC
4455 SOUTH BLVD
VIRGINIA BEACH, VA 23452
Phone 757-490-3157
Manager: GERALD YAGEN
4455 SOUTH BLVD
VIRGINIA BEACH, VA 23452
Phone 757-490-3157
EXTENSION 500.

Airport Operational Statistics

Aircraft based on the field: 54
Single engine airplanes: 50
Multi engine airplanes: 4
    

Additional Remarks

AWOS - PHONE 757-204-2683, FREQUENCY 119.925
FOR CD CTC WASHINGTON ARTCC AT 703-771-3587.

Instrument Procedures

There are no published instrument procedures at 42VA.

Some nearby airports with instrument procedures:

KNTU - Oceana Naval Air Station (Apollo Soucek Field) (9 nm N)
KCPK - Chesapeake Regional Airport (14 nm W)
KORF - Norfolk International Airport (15 nm NW)
KONX - Currituck County Regional Airport (17 nm S)
KNGU - Norfolk Naval Station (Chambers Field) (20 nm NW)
 
Loc | Ops | Rwys | IFR | FBO | Links
Com | Nav | Svcs | Stats | Notes
Area around 42VA (Virginia Beach Airport)
 
Road maps at: MapQuest Bing Google
 
Aerial photo
WARNING: Photo may not be current or correct
Aerial photo of 42VA (Virginia Beach Airport)
Photo by Jerry Yagen
Photo taken 10-Nov-2012
looking east.

Do you have a better or more recent aerial photo of Virginia Beach Airport that you would like to share? If so, please send us your photo.

 
Sectional chart

 
Airport distance calculator
Flying to Virginia Beach Airport? Find the distance to fly.

From to 42VA

Sunrise and sunset
Times for 07-Aug-2022
 Local
(UTC-4)
 Zulu
(UTC)
Morning civil twilight05:4809:48
Sunrise06:1610:16
Sunset20:0400:04
Evening civil twilight20:3200:32

Current date and time
Zulu (UTC)  07-Aug-2022 17:38:10
Local (UTC-4)  07-Aug-2022 13:38:10
 
METAR
KNFE 
5nm W 
071656Z AUTO 21008G17KT 180V270 10SM SCT037 BKN047 32/22 A3022 RMK AO2 SLP236 T03170222
KNTU 
8nm N 
071656Z 17012G18KT 10SM BKN037 BKN049 BKN250 31/23 A3021 RMK AO2 SLP232 VCSH S-SW T2 SET T03110233
KCPK 
14nm W 
071715Z AUTO 21010G14KT A3021 RMK AO2 PWINO
KORF 
16nm NW 
071651Z 19010KT 10SM BKN044 32/22 A3021 RMK AO2 SLP231 T03170222
KONX 
17nm S 
071715Z AUTO 18009G15KT 150V210 10SM SCT035 BKN041 BKN048 31/20 A3022 RMK AO2 T03080196
KNGU 
18nm NW 
071659Z 20007KT 10SM BKN032 BKN250 30/23 A3023 RMK AO2 SLP236 T03000228 $
TAF
KNTU 
8nm N 
0715/0815 17010KT 9999 FEW020 SCT030 SCT300 QNH3008INS TEMPO 0715/0721 8000 -SHRA BKN030 BKN050 BECMG 0721/0723 18010KT 9999 NSW FEW035 SCT050 SCT300 QNH3009INS BECMG 0807/0809 22008KT FEW030 FEW250 QNH3008INS T32/0719Z T24/0808Z FN00071
KORF 
16nm NW 
071400Z 0714/0812 18008KT P6SM VCSH SCT025 BKN040 FM071700 17010KT P6SM BKN045 FM080200 18010KT P6SM SKC
KNGU 
18nm NW 
0715/0815 16010KT 9999 FEW020 SCT030 QNH3008INS TEMPO 0715/0721 VRB06KT 8000 -SHRA BKN055 BECMG 0721/0723 18010KT 9999 NSW FEW035 SCT050 SCT300 QNH3009INS BECMG 0807/0809 21008KT FEW030 FEW250 QNH3008INS T32/0719Z T23/0808Z FN00071
NOTAMs
Click for the latest NOTAMs
NOTAMs are issued by the DoD/FAA and will open in a separate window not controlled by AirNav.

 

 
 

Would you like to see your business listed on this page?

 If your business provides an interesting product or service to pilots, flight crews, aircraft, or users of the Virginia Beach Airport, you should consider listing it here.  To start the listing process, click on the button below
 
Add a business
 

Other Pages about Virginia Beach Airport

www.vbairport.com
Military Aviation Museum
www.fighterfactory.com
 
Update a link
 
Copyright © AirNav, LLC. All rights reserved. Privacy Policy  Contact